Date String (YYYY-MM-DD hh:mm:ss) UTC,Instrument flags,Ambient pressure (hPa),Sample flow (lpm),Bypass flow (lpm),Sample temperature (°C),Ambient temperature (°C),ASC tube jacket temperature (°C),LED temperature (°C),Box temperature (°C),Sample RH (%),Span deviation,Mass concentration (μg/m³),Mass concentration (μg/m³),Mass concentration (μg/m³)
DateTimeUTC,F1_M11,P_M11,Q1_M11,Q2_M11,T1_M11,T2_M11,T3_M11,T4_M11,T5_M11,U1_M11,ZSPAN_M11,X2_M11,X0_M11,X1_M11
2021-10-12 16:00:00,,0815.1,4.99,0.00,28.6,27.6,00.0,37.7,30.3,16.7,0001.2,0007.33,0016.67,0005.82
2021-10-12 16:01:00,,0815.1,5.02,0.00,28.6,27.6,00.0,37.7,30.3,16.8,0001.0,0007.34,0016.03,0005.84
2021-10-12 16:02:00,,0815.1,5.00,0.00,28.6,27.6,00.0,37.7,30.3,16.9,0001.4,0007.41,0016.18,0005.85
2021-10-12 16:03:00,,0815.1,4.99,0.00,28.5,27.6,00.0,37.7,30.3,16.8,0001.3,0007.36,0016.70,0005.84
2021-10-12 16:04:00,,0815.0,5.01,0.00,28.6,27.6,00.0,37.7,30.3,16.8,0001.8,0007.27,0016.96,0005.81
2021-10-12 16:05:00,,0815.1,5.00,0.00,28.5,27.6,00.0,37.7,30.3,16.9,0001.8,0007.23,0017.40,0005.80
2021-10-12 16:06:00,,0815.0,5.00,0.00,28.6,27.6,00.0,37.7,30.3,16.8,0001.8,0007.28,0018.10,0005.80
2021-10-12 16:07:00,,0814.9,5.00,0.00,28.6,27.6,00.0,37.7,30.3,16.9,0002.3,0007.27,0018.06,0005.79
2021-10-12 16:08:00,,0814.9,4.99,0.00,28.6,27.6,00.0,37.7,30.3,16.9,0002.7,0007.25,0017.63,0005.77
2021-10-12 16:09:00,,0814.9,5.00,0.00,28.6,27.6,00.0,37.7,30.3,16.8,0002.5,0007.25,0017.68,0005.77
2021-10-12 16:10:00,,0814.9,5.01,0.00,28.6,27.6,00.0,37.7,30.3,16.9,0002.2,0007.25,0017.52,0005.77
2021-10-12 16:11:00,,0814.8,4.99,0.00,28.6,27.6,00.0,37.7,30.3,17.0,0002.2,0007.28,0018.39,0005.76
2021-10-12 16:12:00,,0814.8,5.00,0.00,28.6,27.6,00.0,37.7,30.3,16.9,0002.5,0007.22,0017.81,0005.74
2021-10-12 16:13:00,,0814.9,5.01,0.00,28.6,27.6,00.0,37.7,30.3,16.9,0002.3,0007.16,0017.56,0005.74
2021-10-12 16:14:00,,0815.0,5.00,0.00,28.6,27.6,00.0,37.7,30.3,16.9,0002.3,0007.19,0016.88,0005.74
2021-10-12 16:15:00,,0814.8,4.98,0.00,28.6,27.6,00.0,37.7,30.3,16.8,0002.0,0007.23,0017.70,0005.74
2021-10-12 16:16:00,,0814.8,5.00,0.00,28.6,27.6,00.0,37.7,30.3,16.9,0002.1,0007.25,0017.35,0005.74
2021-10-12 16:17:00,,0815.0,5.01,0.00,28.6,27.6,00.0,37.7,30.3,16.8,0002.0,0007.21,0016.83,0005.73
2021-10-12 16:18:00,,0814.7,5.00,0.00,28.6,27.6,00.0,37.7,30.3,16.8,0001.2,0007.19,0018.55,0005.74
2021-10-12 16:19:00,,0815.0,4.99,0.00,28.6,27.6,00.0,37.7,30.3,16.8,0000.7,0007.22,0019.09,0005.76
2021-10-12 16:20:00,,0815.1,5.01,0.00,28.6,27.6,00.0,37.7,30.3,16.8,0001.4,0007.26,0019.61,0005.76
2021-10-12 16:21:00,,0815.0,5.00,0.00,28.6,27.6,00.0,37.7,30.3,17.0,0002.2,0007.25,0019.57,0005.73
2021-10-12 16:22:00,,0814.8,5.00,0.00,28.6,27.6,00.0,37.7,30.3,17.0,0002.3,0007.24,0018.71,0005.74
2021-10-12 16:23:00,,0814.9,4.99,0.00,28.6,27.6,00.0,37.7,30.3,17.0,0001.7,0007.26,0018.78,0005.74
2021-10-12 16:24:00,,0815.1,5.00,0.00,28.6,27.6,00.0,37.7,30.3,16.9,0001.3,0007.29,0019.52,0005.73
2021-10-12 16:25:00,,0815.1,5.01,0.00,28.6,27.6,00.0,37.7,30.3,17.0,0001.3,0007.30,0020.14,0005.73
2021-10-12 16:26:00,,0815.0,5.00,0.00,28.6,27.6,00.0,37.7,30.3,16.9,0001.4,0007.33,0019.59,0005.72
2021-10-12 16:27:00,,0815.0,4.99,0.00,28.6,27.6,00.0,37.7,30.3,16.9,0001.3,0007.39,0020.03,0005.74
2021-10-12 16:28:00,,0815.1,5.01,0.00,28.6,27.6,00.0,37.7,30.3,17.0,0001.2,0007.40,0020.49,0005.75
2021-10-12 16:29:00,,0815.0,4.99,0.00,28.6,27.6,00.0,37.7,30.3,17.0,0001.6,0007.40,0019.28,0005.74
2021-10-12 16:30:00,,0815.0,5.00,0.00,28.6,27.6,00.0,37.7,30.3,17.0,0002.0,0007.37,0019.08,0005.73
2021-10-12 16:31:00,,0815.1,5.00,0.00,28.6,27.6,00.0,37.7,30.3,17.0,0001.9,0007.31,0018.48,0005.74
2021-10-12 16:32:00,,0814.9,5.00,0.00,28.6,27.6,00.0,37.7,30.3,17.0,0001.8,0007.29,0018.25,0005.74
2021-10-12 16:33:00,,0814.9,4.99,0.00,28.6,27.6,00.0,37.7,30.3,17.0,0001.5,0007.25,0018.72,0005.72
2021-10-12 16:34:00,,0815.1,5.00,0.00,28.6,27.6,00.0,37.7,30.3,16.9,0001.3,0007.24,0018.79,0005.72
2021-10-12 16:35:00,,0814.9,5.00,0.00,28.5,27.6,00.0,37.7,30.3,16.9,0001.9,0007.21,0018.11,0005.71
2021-10-12 16:36:00,,0814.9,5.00,0.00,28.5,27.6,00.0,37.7,30.3,16.9,0002.0,0007.22,0017.41,0005.71
2021-10-12 16:37:00,,0815.0,4.99,0.00,28.5,27.6,00.0,37.7,30.3,17.0,0001.7,0007.14,0017.32,0005.70
2021-10-12 16:38:00,,0814.9,5.00,0.00,28.6,27.6,00.0,37.7,30.3,16.9,0001.4,0007.10,0017.24,0005.68
2021-10-12 16:39:00,,0814.8,5.01,0.00,28.6,27.6,00.0,37.7,30.3,16.9,0001.2,0007.05,0016.39,0005.65
2021-10-12 16:40:00,,0814.7,5.00,0.00,28.6,27.6,00.0,37.7,30.3,16.9,0001.2,0007.05,0015.88,0005.64
2021-10-12 16:41:00,,0814.6,5.00,0.00,28.6,27.6,00.0,37.7,30.3,16.9,0001.1,0007.06,0015.47,0005.63
2021-10-12 16:42:00,,0815.0,5.01,0.00,28.6,27.6,00.0,37.7,30.3,16.9,0001.0,0007.07,0015.69,0005.63
2021-10-12 16:43:00,,0815.0,5.00,0.00,28.6,27.6,00.0,37.7,30.3,17.0,0001.1,0007.07,0016.29,0005.62
2021-10-12 16:44:00,,0815.3,4.99,0.00,28.5,27.6,00.0,37.7,30.3,17.0,0001.3,0007.08,0015.99,0005.64
2021-10-12 16:45:00,,0815.2,5.01,0.00,28.5,27.6,00.0,37.7,30.3,17.0,0001.3,0007.04,0016.05,0005.66
2021-10-12 16:46:00,,0815.1,5.01,0.00,28.5,27.6,00.0,37.7,30.3,17.0,0001.5,0007.04,0016.44,0005.67
2021-10-12 16:47:00,,0814.8,5.01,0.00,28.6,27.6,00.0,37.7,30.3,17.0,0001.9,0007.03,0016.66,0005.67
2021-10-12 16:48:00,,0814.7,5.00,0.00,28.5,27.6,00.0,37.7,30.3,17.0,0002.1,0007.04,0016.31,0005.71
2021-10-12 16:49:00,,0814.9,5.00,0.00,28.5,27.6,00.0,37.7,30.3,17.0,0002.6,0007.07,0016.17,0005.72
2021-10-12 16:50:00,,0815.0,5.00,0.00,28.5,27.6,00.0,37.7,30.3,17.0,0002.6,0007.06,0016.95,0005.74
2021-10-12 16:51:00,,0814.8,5.01,0.00,28.5,27.6,00.0,37.7,30.3,17.0,0002.9,0007.10,0016.98,0005.76
2021-10-12 16:52:00,,0814.6,4.98,0.00,28.5,27.6,00.0,37.7,30.3,17.0,0003.0,0007.10,0016.60,0005.78
2021-10-12 16:53:00,,0814.7,5.01,0.00,28.5,27.6,00.0,37.7,30.3,17.1,0003.2,0007.10,0017.09,0005.80
2021-10-12 16:54:00,,0814.7,4.99,0.00,28.5,27.6,00.0,37.7,30.2,17.1,0003.0,0007.15,0016.89,0005.82
2021-10-12 16:55:00,,0814.9,5.01,0.00,28.5,27.6,00.0,37.7,30.2,17.0,0002.7,0007.19,0017.05,0005.83
2021-10-12 16:56:00,,0815.0,4.98,0.00,28.5,27.6,00.0,37.7,30.2,16.9,0002.7,0007.27,0017.48,0005.85
2021-10-12 16:57:00,,0814.8,5.00,0.00,28.5,27.6,00.0,37.7,30.2,16.9,0002.9,0007.38,0018.04,0005.86
2021-10-12 16:58:00,,0814.8,4.99,0.00,28.5,27.6,00.0,37.6,30.2,17.0,0002.7,0007.42,0018.14,0005.86
2021-10-12 16:59:00,,0814.7,5.00,0.00,28.5,27.6,00.0,37.6,30.2,17.0,0002.1,0007.47,0019.58,0005.85
